Regional Weather Roundup
Issued by NWS

Home | Current Version | Previous Version | Graphics & Text | Print | Product List | Glossary On
Versions: 1 2 3 4 5 6 7 8 9 10 11 12 13 14 15 16 17 18 19 20 21 22 23 24 25 26 27 28 29 30 31 32 33 34 35 36 37 38 39 40 41 42 43 44 45 46 47 48 49
000
ASUS45 KBOU 221007
RWRCO

WEATHER ROUNDUP FOR COLORADO
NATIONAL WEATHER SERVICE DENVER/BOULDER CO
400 AM MDT TUE JUL 22 2014

NOTE: "FAIR" INDICATES FEW OR NO CLOUDS BELOW 12000 FEET WITH NO
SIGNIFICANT WEATHER AND/OR OBSTRUCTIONS TO VISIBILITY.

COZ001>005-013-030-031-221100-
...NORTHWEST COLORADO...

CITY           SKY/WX    TMP DP  RH WIND       PRES   REMARKS
CRAIG          CLEAR     40  40 100 CALM      30.33R
HAYDEN         CLEAR     55  37  50 E9        30.34S
MEEKER         CLEAR     51  34  52 E6        30.35R
MOUNT WERNER   NOT AVBL
STEAMBOAT SPGS CLEAR     49  38  66 CALM      30.37R
WALDEN         PTCLDY    43  34  70 SE7       30.46R
$$

COZ006>008-011-221100-
...WEST CENTRAL VALLEYS...

CITY           SKY/WX    TMP DP  RH WIND       PRES   REMARKS
GRAND JUNCTION CLEAR     70  26  19 E13       30.20R
MONTROSE       CLEAR     65  33  30 SE14      30.31S
EAGLE          CLEAR     54  39  58 CALM      30.41R
RIFLE          CLEAR     56  30  37 CALM      30.29R
DELTA          CLEAR     63  33  32 CALM      30.27R
NUCLA          CLEAR     63  32  31 SE10      30.34R
$$

COZ017>023-064>068-221100-
...SOUTHWEST COLORADO...

CITY           SKY/WX    TMP DP  RH WIND       PRES   REMARKS
DURANGO        CLEAR     58  33  39 CALM      30.34S
CORTEZ         CLEAR     50  38  63 E5        30.30S
PAGOSA SPRINGS CLEAR     56  42  58 CALM      30.43S
TELLURIDE      CLEAR     54  30  40 SE7       30.56S
WOLF CREEK PAS NOT AVBL
$$

COZ009-010-012-014-032>034-037-058>063-221100-
...CENTRAL COLORADO...

CITY           SKY/WX    TMP DP  RH WIND       PRES   REMARKS
ASPEN          CLEAR     53  34  48 SW8       30.46R
BUENA VISTA    CLEAR     52  35  51 NW6       30.48R
COPPER MTN     CLEAR     55  25  30 SW7       30.79S
BERTHOUD PASS  FAIR      48  34  57 W5        30.85R
COTTONWOOD PAS CLEAR     64  21  19 W12       30.61S
GUNNISON       CLEAR     46  36  66 CALM      30.52R
KREMMLING      CLEAR     45  36  70 CALM      30.46R
LEADVILLE      CLEAR     42  33  70 S3        30.62R
MONARCH PASS   CLEAR     52  32  46 W13       30.88S
SALIDA         CLEAR    N/A N/A N/A W7        30.52S
SUNLIGHT       CLEAR     59  19  21 CALM      30.70S
WILKERSON PASS CLEAR     55  32  41 NW6       30.75R
$$

COZ069>075-221100-
...SAN LUIS VALLEY/SANGRE DE CRISTO MOUNTAINS...

CITY           SKY/WX    TMP DP  RH WIND       PRES   REMARKS
ALAMOSA        CLEAR     50  47  89 E5        30.43R
LA VETA PASS   CLEAR     55  37  50 S3        30.62R
SAGUACHE       CLEAR     52  37  58 N10       30.46S
$$

COZ035-036-038>040-221100-
...NORTHERN COLORADO FRONT RANGE...

CITY           SKY/WX    TMP DP  RH WIND       PRES   REMARKS
DENVER INTL AP PTCLDY    68  45  43 S8        30.21R
DMNS CITY PARK   N/A     68  44  42 S5G13     30.21R
AURORA         PTCLDY    64  46  51 S10       30.24R
FRONT RANGE AP NOT AVBL
ERIE MUNI ARPT CLEAR     61  46  58 CALM      30.18S
BOULDER MUN AP CLEAR     73  39  29 CALM      30.18S
CENTENNIAL     CLEAR     65  43  44 S8        30.25S
BROOMFIELD     CLEAR     68  41  37 SW3       30.22S
FORT COLLINS   CLEAR     64  52  63 N10       30.19S
LONGMONT       CLEAR     69  43  39 W3        30.19S
$$

COZ041-046-047-076>085-087-088-221100-
...PIKES PEAK/PALMER DIVIDE AND SOUTHERN FOOTHILLS...

CITY           SKY/WX    TMP DP  RH WIND       PRES   REMARKS
COLO. SPRINGS  CLEAR     60  49  66 N6        30.31R
A. F. ACADEMY  CLEAR     55  46  72 N5        30.34R
ELLICOTT       CLEAR     58  53  84 CALM      30.28R
FALCON         CLEAR     57  49  74 W7        30.36S
FORT CARSON    CLEAR     61  47  61 NW8       30.27S
LIMON          CLEAR     63  56  78 CALM      30.23R
MONUMENT HILL  CLEAR     59  43  55 S10       30.35R
TRINIDAD       CLEAR     67  52  58 SW15      30.24F
$$

COZ042>045-048>051-090-091-221100-
...NORTHEAST COLORADO...

CITY           SKY/WX    TMP DP  RH WIND       PRES   REMARKS
GREELEY ARPT   CLEAR     61  48  63 NE3       30.18R
AKRON          PTCLDY    74  53  48 S14G24    30.17R
BURLINGTON     CLEAR     70  57  63 NW14G20   30.14R
WRAY             N/A     76  55  48 SW8       30.06F
STERLING       PTCLDY    79  52  38 S9        30.08R
HOLYOKE        PTCLDY    79  46  31 N9        30.05R
FORT MORGAN    PTCLDY    71  51  49 SW7       30.17R
$$

COZ086-089-092>099-221100-
...SOUTHEAST COLORADO...

CITY           SKY/WX    TMP DP  RH WIND       PRES   REMARKS
PUEBLO         CLEAR     63  55  75 CALM      30.17S
LA JUNTA       CLEAR     72  58  61 W12       30.11F
LAMAR          PTCLDY    71  60  68 W9        30.07F
SPRINGFIELD      N/A     67  63  87 SW13      30.13F
$$



USA.gov is the U.S. government's official web portal to all federal, state and local government web resources and services.